000000,18.5433, 09 Nov 2015, 00:00:37
000030,18.5435, 09 Nov 2015, 00:01:06
000100,18.5436, 09 Nov 2015, 00:01:36
000130,18.544, 09 Nov 2015, 00:02:06
000200,18.5437, 09 Nov 2015, 00:02:37
000230,18.5437, 09 Nov 2015, 00:03:07
000300,18.5448, 09 Nov 2015, 00:03:36
000330,18.5455, 09 Nov 2015, 00:04:06
000400,18.546, 09 Nov 2015, 00:04:37
000430,18.5464, 09 Nov 2015, 00:05:07
000500,18.5459, 09 Nov 2015, 00:05:37
000530,18.545, 09 Nov 2015, 00:06:06
000600,18.545, 09 Nov 2015, 00:06:36
000630,18.5436, 09 Nov 2015, 00:07:07
000700,18.5428, 09 Nov 2015, 00:07:37
000730,18.5433, 09 Nov 2015, 00:08:06
000800,18.5426, 09 Nov 2015, 00:08:36
000830,18.542, 09 Nov 2015, 00:09:06
000900,18.5414, 09 Nov 2015, 00:09:37
000930,18.5413, 09 Nov 2015, 00:10:06
001000,18.5419, 09 Nov 2015, 00:10:36
001030,18.5425, 09 Nov 2015, 00:11:06
001100,18.5412, 09 Nov 2015, 00:11:36
001130,18.5416, 09 Nov 2015, 00:12:07
001200,18.5416, 09 Nov 2015, 00:12:36
001230,18.541, 09 Nov 2015, 00:13:06
001300,18.5404, 09 Nov 2015, 00:13:36
001330,18.5392, 09 Nov 2015, 00:14:07
001400,18.5395, 09 Nov 2015, 00:14:37
001430,18.54, 09 Nov 2015, 00:15:06
001500,18.5391, 09 Nov 2015, 00:15:36
001530,18.5385, 09 Nov 2015, 00:16:06
001600,18.5385, 09 Nov 2015, 00:16:36
001630,18.5392, 09 Nov 2015, 00:17:06
001700,18.5387, 09 Nov 2015, 00:17:36
001730,18.5383, 09 Nov 2015, 00:18:06
001800,18.5384, 09 Nov 2015, 00:18:36
001830,18.5388, 09 Nov 2015, 00:19:06
001900,18.538, 09 Nov 2015, 00:19:36
001930,18.5372, 09 Nov 2015, 00:20:06
002000,18.536, 09 Nov 2015, 00:20:36
002030,18.5353, 09 Nov 2015, 00:21:06
002100,18.5369, 09 Nov 2015, 00:21:36
002130,18.537, 09 Nov 2015, 00:22:06
002200,18.5365, 09 Nov 2015, 00:22:36
002230,18.5374, 09 Nov 2015, 00:23:06
002300,18.5374, 09 Nov 2015, 00:23:36
002330,18.5372, 09 Nov 2015, 00:24:06
002400,18.5357, 09 Nov 2015, 00:24:36
002430,18.5363, 09 Nov 2015, 00:25:06
002500,18.5363, 09 Nov 2015, 00:25:35
002530,18.5364, 09 Nov 2015, 00:26:06
002600,18.536, 09 Nov 2015, 00:26:36
002630,18.5364, 09 Nov 2015, 00:27:06
002700,18.5373, 09 Nov 2015, 00:27:35
002730,18.5382, 09 Nov 2015, 00:28:06
002800,18.5388, 09 Nov 2015, 00:28:36
002830,18.5392, 09 Nov 2015, 00:29:06
002900,18.5389, 09 Nov 2015, 00:29:35
002930,18.5385, 09 Nov 2015, 00:30:05
003000,18.5369, 09 Nov 2015, 00:30:36
003030,18.5365, 09 Nov 2015, 00:31:06
003100,18.537, 09 Nov 2015, 00:31:36
003130,18.5374, 09 Nov 2015, 00:32:05
003200,18.5374, 09 Nov 2015, 00:32:36
003230,18.5381, 09 Nov 2015, 00:33:06
003300,18.539, 09 Nov 2015, 00:33:36
003330,18.5384, 09 Nov 2015, 00:34:05
003400,18.5363, 09 Nov 2015, 00:34:35
003430,18.5359, 09 Nov 2015, 00:35:06
003500,18.5352, 09 Nov 2015, 00:35:36
003530,18.535, 09 Nov 2015, 00:36:06
003600,18.5356, 09 Nov 2015, 00:36:36
003630,18.5366, 09 Nov 2015, 00:37:07
003700,18.5366, 09 Nov 2015, 00:37:37
003730,18.5366, 09 Nov 2015, 00:38:06
003800,18.5368, 09 Nov 2015, 00:38:36
003830,18.5379, 09 Nov 2015, 00:39:07
003900,18.5388, 09 Nov 2015, 00:39:37
003930,18.5388, 09 Nov 2015, 00:40:07
004000,18.5404, 09 Nov 2015, 00:40:36
004030,18.541, 09 Nov 2015, 00:41:06
004100,18.5407, 09 Nov 2015, 00:41:37
004130,18.5398, 09 Nov 2015, 00:42:07
004200,18.5385, 09 Nov 2015, 00:42:36
004230,18.538, 09 Nov 2015, 00:43:06
004300,18.5384, 09 Nov 2015, 00:43:37
004330,18.5382, 09 Nov 2015, 00:44:07
004400,18.538, 09 Nov 2015, 00:44:37
004430,18.5382, 09 Nov 2015, 00:45:06
004500,18.5377, 09 Nov 2015, 00:45:36
004530,18.5374, 09 Nov 2015, 00:46:07
004600,18.5358, 09 Nov 2015, 00:46:36
004630,18.5355, 09 Nov 2015, 00:47:06
004700,18.5342, 09 Nov 2015, 00:47:36
004730,18.5349, 09 Nov 2015, 00:48:07
004800,18.5347, 09 Nov 2015, 00:48:37
004830,18.5357, 09 Nov 2015, 00:49:06
004900,18.5364, 09 Nov 2015, 00:49:36
004930,18.5366, 09 Nov 2015, 00:50:06
005000,18.5368, 09 Nov 2015, 00:50:37
005030,18.5363, 09 Nov 2015, 00:51:06
005100,18.5374, 09 Nov 2015, 00:51:36
005130,18.5375, 09 Nov 2015, 00:52:06
005200,18.538, 09 Nov 2015, 00:52:37
005230,18.5386, 09 Nov 2015, 00:53:06
005300,18.5384, 09 Nov 2015, 00:53:36
005330,18.538, 09 Nov 2015, 00:54:06
005400,18.5369, 09 Nov 2015, 00:54:36
005430,18.5359, 09 Nov 2015, 00:55:07
005500,18.5352, 09 Nov 2015, 00:55:36
005530,18.5343, 09 Nov 2015, 00:56:06
005600,18.5333, 09 Nov 2015, 00:56:36
005630,18.5335, 09 Nov 2015, 00:57:06
005700,18.535, 09 Nov 2015, 00:57:36
005730,18.536, 09 Nov 2015, 00:58:06
005800,18.5373, 09 Nov 2015, 00:58:36
005830,18.5386, 09 Nov 2015, 00:59:06
005900,18.5389, 09 Nov 2015, 00:59:36
005930,18.5396, 09 Nov 2015, 01:00:06
010000,18.5399, 09 Nov 2015, 01:00:36
010030,18.5392, 09 Nov 2015, 01:01:06
010100,18.5384, 09 Nov 2015, 01:01:36
010130,18.5383, 09 Nov 2015, 01:02:06
010200,18.5375, 09 Nov 2015, 01:02:36
010230,18.5365, 09 Nov 2015, 01:03:06
010300,18.5359, 09 Nov 2015, 01:03:36
010330,18.5338, 09 Nov 2015, 01:04:06
010400,18.533, 09 Nov 2015, 01:04:36
010430,18.5319, 09 Nov 2015, 01:05:06
010500,18.5312, 09 Nov 2015, 01:05:36
010530,18.5308, 09 Nov 2015, 01:06:06
010600,18.5303, 09 Nov 2015, 01:06:36
010630,18.5305, 09 Nov 2015, 01:07:06
010700,18.5292, 09 Nov 2015, 01:07:36
010730,18.5293, 09 Nov 2015, 01:08:06
010800,18.5286, 09 Nov 2015, 01:08:35
010830,18.5275, 09 Nov 2015, 01:09:06
010900,18.5273, 09 Nov 2015, 01:09:36
010930,18.5267, 09 Nov 2015, 01:10:06
011000,18.5268, 09 Nov 2015, 01:10:35
011030,18.527, 09 Nov 2015, 01:11:06
011100,18.5263, 09 Nov 2015, 01:11:36
011130,18.5256, 09 Nov 2015, 01:12:06
011200,18.5262, 09 Nov 2015, 01:12:36
011230,18.5255, 09 Nov 2015, 01:13:05
011300,18.5265, 09 Nov 2015, 01:13:36
011330,18.527, 09 Nov 2015, 01:14:06
011400,18.5276, 09 Nov 2015, 01:14:36
011430,18.5279, 09 Nov 2015, 01:15:06
011500,18.5272, 09 Nov 2015, 01:15:35
011530,18.5269, 09 Nov 2015, 01:16:06
011600,18.5265, 09 Nov 2015, 01:16:37
011630,18.5256, 09 Nov 2015, 01:17:06
011700,18.5252, 09 Nov 2015, 01:17:36
011730,18.5246, 09 Nov 2015, 01:18:07
011800,18.5245, 09 Nov 2015, 01:18:37
011830,18.524, 09 Nov 2015, 01:19:06
011900,18.5237, 09 Nov 2015, 01:19:36
011930,18.5228, 09 Nov 2015, 01:20:06
012000,18.5221, 09 Nov 2015, 01:20:37
012030,18.5218, 09 Nov 2015, 01:21:07
012100,18.5204, 09 Nov 2015, 01:21:36
012130,18.52, 09 Nov 2015, 01:22:06
012200,18.5185, 09 Nov 2015, 01:22:37
012230,18.5177, 09 Nov 2015, 01:23:07
012300,18.5167, 09 Nov 2015, 01:23:36
012330,18.5162, 09 Nov 2015, 01:24:06
012400,18.5154, 09 Nov 2015, 01:24:36
012430,18.514, 09 Nov 2015, 01:25:07
012500,18.5129, 09 Nov 2015, 01:25:37
012530,18.5121, 09 Nov 2015, 01:26:06
012600,18.5108, 09 Nov 2015, 01:26:36
012630,18.51, 09 Nov 2015, 01:27:07
012700,18.5092, 09 Nov 2015, 01:27:36
012730,18.5096, 09 Nov 2015, 01:28:06
012800,18.5107, 09 Nov 2015, 01:28:36
012830,18.5102, 09 Nov 2015, 01:29:06
012900,18.5109, 09 Nov 2015, 01:29:37
012930,18.5106, 09 Nov 2015, 01:30:06
013000,18.5109, 09 Nov 2015, 01:30:36
013030,18.5106, 09 Nov 2015, 01:31:06
013100,18.5102, 09 Nov 2015, 01:31:37
013130,18.5106, 09 Nov 2015, 01:32:07
013200,18.5093, 09 Nov 2015, 01:32:36
013230,18.5094, 09 Nov 2015, 01:33:06
013300,18.5088, 09 Nov 2015, 01:33:36
013330,18.5091, 09 Nov 2015, 01:34:07
013400,18.5085, 09 Nov 2015, 01:34:36
013430,18.5079, 09 Nov 2015, 01:35:06
013500,18.5068, 09 Nov 2015, 01:35:36
013530,18.5073, 09 Nov 2015, 01:36:07
013600,18.506, 09 Nov 2015, 01:36:36
013630,18.5045, 09 Nov 2015, 01:37:06
013700,18.5046, 09 Nov 2015, 01:37:36
013730,18.5031, 09 Nov 2015, 01:38:06
013800,18.5018, 09 Nov 2015, 01:38:36
013830,18.5009, 09 Nov 2015, 01:39:06
013900,18.499, 09 Nov 2015, 01:39:36
013930,18.498, 09 Nov 2015, 01:40:06
014000,18.497, 09 Nov 2015, 01:40:37
014030,18.4961, 09 Nov 2015, 01:41:06
014100,18.4953, 09 Nov 2015, 01:41:36
014130,18.4947, 09 Nov 2015, 01:42:06
014200,18.495, 09 Nov 2015, 01:42:36
014230,18.4942, 09 Nov 2015, 01:43:06
014300,18.4936, 09 Nov 2015, 01:43:36
014330,18.4927, 09 Nov 2015, 01:44:06
014400,18.4919, 09 Nov 2015, 01:44:36
014430,18.49, 09 Nov 2015, 01:45:06
014500,18.4885, 09 Nov 2015, 01:45:36
014530,18.487, 09 Nov 2015, 01:46:06
014600,18.4849, 09 Nov 2015, 01:46:36
014630,18.4827, 09 Nov 2015, 01:47:05
014700,18.4804, 09 Nov 2015, 01:47:36
014730,18.4772, 09 Nov 2015, 01:48:06
014800,18.474, 09 Nov 2015, 01:48:36
014830,18.4711, 09 Nov 2015, 01:49:05
014900,18.468, 09 Nov 2015, 01:49:36
014930,18.4637, 09 Nov 2015, 01:50:06
015000,18.4584, 09 Nov 2015, 01:50:36
015030,18.4536, 09 Nov 2015, 01:51:06
015100,18.4482, 09 Nov 2015, 01:51:35
015130,18.444, 09 Nov 2015, 01:52:06
015200,18.4395, 09 Nov 2015, 01:52:36
015230,18.4357, 09 Nov 2015, 01:53:06
015300,18.4325, 09 Nov 2015, 01:53:35
015330,18.4289, 09 Nov 2015, 01:54:06
015400,18.4244, 09 Nov 2015, 01:54:36
015430,18.4207, 09 Nov 2015, 01:55:06
015500,18.4164, 09 Nov 2015, 01:55:36
015530,18.4126, 09 Nov 2015, 01:56:05
015600,18.4089, 09 Nov 2015, 01:56:37
015630,18.4048, 09 Nov 2015, 01:57:07
015700,18.3999, 09 Nov 2015, 01:57:36
015730,18.3949, 09 Nov 2015, 01:58:06
015800,18.3897, 09 Nov 2015, 01:58:37
015830,18.3842, 09 Nov 2015, 01:59:07
015900,18.3801, 09 Nov 2015, 01:59:37
015930,18.3771, 09 Nov 2015, 02:00:06
020000,18.3757, 09 Nov 2015, 02:00:36
020030,18.3749, 09 Nov 2015, 02:01:07
020100,18.3753, 09 Nov 2015, 02:01:37
020130,18.3757, 09 Nov 2015, 02:02:06
020200,18.3761, 09 Nov 2015, 02:02:36
020230,18.3774, 09 Nov 2015, 02:03:07
020300,18.3799, 09 Nov 2015, 02:03:37
020330,18.3822, 09 Nov 2015, 02:04:07
020400,18.385, 09 Nov 2015, 02:04:36
020430,18.3879, 09 Nov 2015, 02:05:06
020500,18.3906, 09 Nov 2015, 02:05:37
020530,18.3932, 09 Nov 2015, 02:06:07
020600,18.3942, 09 Nov 2015, 02:06:36
020630,18.3961, 09 Nov 2015, 02:07:06
020700,18.3983, 09 Nov 2015, 02:07:36
020730,18.4011, 09 Nov 2015, 02:08:07
020800,18.4043, 09 Nov 2015, 02:08:37
020830,18.4074, 09 Nov 2015, 02:09:06
020900,18.4097, 09 Nov 2015, 02:09:36
020930,18.4106, 09 Nov 2015, 02:10:06
021000,18.4107, 09 Nov 2015, 02:10:37
021030,18.4094, 09 Nov 2015, 02:11:07
021100,18.407, 09 Nov 2015, 02:11:36
021130,18.4052, 09 Nov 2015, 02:12:06
021200,18.4032, 09 Nov 2015, 02:12:36
021230,18.4019, 09 Nov 2015, 02:13:07
021300,18.4022, 09 Nov 2015, 02:13:36
021330,18.4023, 09 Nov 2015, 02:14:06
021400,18.4023, 09 Nov 2015, 02:14:36
021430,18.4018, 09 Nov 2015, 02:15:07
021500,18.4018, 09 Nov 2015, 02:15:37
021530,18.4015, 09 Nov 2015, 02:16:06
021600,18.4011, 09 Nov 2015, 02:16:36
021630,18.4015, 09 Nov 2015, 02:17:06
021700,18.4011, 09 Nov 2015, 02:17:36
021730,18.4022, 09 Nov 2015, 02:18:06
021800,18.4031, 09 Nov 2015, 02:18:36
021830,18.403, 09 Nov 2015, 02:19:06
021900,18.4032, 09 Nov 2015, 02:19:37
021930,18.4035, 09 Nov 2015, 02:20:06
022000,18.4042, 09 Nov 2015, 02:20:36
022030,18.4037, 09 Nov 2015, 02:21:06
022100,18.4039, 09 Nov 2015, 02:21:36
022130,18.4036, 09 Nov 2015, 02:22:07
022200,18.403, 09 Nov 2015, 02:22:36
022230,18.4018, 09 Nov 2015, 02:23:06
022300,18.4015, 09 Nov 2015, 02:23:36
022330,18.401, 09 Nov 2015, 02:24:06
022400,18.4013, 09 Nov 2015, 02:24:36
022430,18.4006, 09 Nov 2015, 02:25:06
022500,18.4001, 09 Nov 2015, 02:25:36
022530,18.4005, 09 Nov 2015, 02:26:06
022600,18.4005, 09 Nov 2015, 02:26:36
022630,18.4005, 09 Nov 2015, 02:27:06
022700,18.3999, 09 Nov 2015, 02:27:36
022730,18.4009, 09 Nov 2015, 02:28:06
022800,18.4009, 09 Nov 2015, 02:28:35
022830,18.4001, 09 Nov 2015, 02:29:06
022900,18.4009, 09 Nov 2015, 02:29:36
022930,18.4013, 09 Nov 2015, 02:30:06
023000,18.4008, 09 Nov 2015, 02:30:36
023030,18.4011, 09 Nov 2015, 02:31:06
023100,18.4003, 09 Nov 2015, 02:31:36
023130,18.3994, 09 Nov 2015, 02:32:06
023200,18.3994, 09 Nov 2015, 02:32:36
023230,18.398, 09 Nov 2015, 02:33:05
023300,18.3983, 09 Nov 2015, 02:33:36
023330,18.3973, 09 Nov 2015, 02:34:06
023400,18.3972, 09 Nov 2015, 02:34:36
023430,18.3974, 09 Nov 2015, 02:35:06
023500,18.3983, 09 Nov 2015, 02:35:35
023530,18.398, 09 Nov 2015, 02:36:06
023600,18.3975, 09 Nov 2015, 02:36:36
023630,18.3967, 09 Nov 2015, 02:37:05
023700,18.3955, 09 Nov 2015, 02:37:35
023730,18.3943, 09 Nov 2015, 02:38:06
023800,18.393, 09 Nov 2015, 02:38:36
023830,18.3921, 09 Nov 2015, 02:39:06
023900,18.3921, 09 Nov 2015, 02:39:35
023930,18.3913, 09 Nov 2015, 02:40:05
024000,18.3905, 09 Nov 2015, 02:40:36
024030,18.3907, 09 Nov 2015, 02:41:06
024100,18.3897, 09 Nov 2015, 02:41:35
024130,18.3902, 09 Nov 2015, 02:42:05
024200,18.3903, 09 Nov 2015, 02:42:36
024230,18.3907, 09 Nov 2015, 02:43:06
024300,18.3903, 09 Nov 2015, 02:43:36
024330,18.3903, 09 Nov 2015, 02:44:05
024400,18.3898, 09 Nov 2015, 02:44:35
024430,18.3899, 09 Nov 2015, 02:45:06
024500,18.3904, 09 Nov 2015, 02:45:36
024530,18.3904, 09 Nov 2015, 02:46:05
024600,18.3905, 09 Nov 2015, 02:46:36
024630,18.3905, 09 Nov 2015, 02:47:07
024700,18.3915, 09 Nov 2015, 02:47:37
024730,18.3927, 09 Nov 2015, 02:48:06
024800,18.3932, 09 Nov 2015, 02:48:36
024830,18.3935, 09 Nov 2015, 02:49:06
024900,18.394, 09 Nov 2015, 02:49:37
024930,18.3952, 09 Nov 2015, 02:50:06
025000,18.3959, 09 Nov 2015, 02:50:36
025030,18.3969, 09 Nov 2015, 02:51:06
025100,18.3979, 09 Nov 2015, 02:51:37
025130,18.3988, 09 Nov 2015, 02:52:07
025200,18.4004, 09 Nov 2015, 02:52:36
025230,18.4018, 09 Nov 2015, 02:53:06
025300,18.4049, 09 Nov 2015, 02:53:36
025330,18.4079, 09 Nov 2015, 02:54:07
025400,18.4103, 09 Nov 2015, 02:54:36
025430,18.4124, 09 Nov 2015, 02:55:06
025500,18.4151, 09 Nov 2015, 02:55:36
025530,18.4176, 09 Nov 2015, 02:56:07
025600,18.4193, 09 Nov 2015, 02:56:36
025630,18.4215, 09 Nov 2015, 02:57:06
025700,18.4246, 09 Nov 2015, 02:57:36
025730,18.4279, 09 Nov 2015, 02:58:06
025800,18.4315, 09 Nov 2015, 02:58:36
025830,18.4357, 09 Nov 2015, 02:59:06
025900,18.441, 09 Nov 2015, 02:59:36
025930,18.4467, 09 Nov 2015, 03:00:06
030000,18.4531, 09 Nov 2015, 03:00:37
030030,18.4583, 09 Nov 2015, 03:01:06
030100,18.4642, 09 Nov 2015, 03:01:36
030130,18.4692, 09 Nov 2015, 03:02:06
030200,18.4727, 09 Nov 2015, 03:02:36
030230,18.4764, 09 Nov 2015, 03:03:07
030300,18.4783, 09 Nov 2015, 03:03:36
030330,18.4796, 09 Nov 2015, 03:04:06
030400,18.4811, 09 Nov 2015, 03:04:36
030430,18.4821, 09 Nov 2015, 03:05:06
030500,18.4825, 09 Nov 2015, 03:05:36
030530,18.4836, 09 Nov 2015, 03:06:06
030600,18.4836, 09 Nov 2015, 03:06:36
030630,18.4857, 09 Nov 2015, 03:07:06
030700,18.4866, 09 Nov 2015, 03:07:35
030730,18.4883, 09 Nov 2015, 03:08:06
030800,18.4885, 09 Nov 2015, 03:08:36
030830,18.4895, 09 Nov 2015, 03:09:06
030900,18.4901, 09 Nov 2015, 03:09:36
030930,18.4912, 09 Nov 2015, 03:10:06
031000,18.492, 09 Nov 2015, 03:10:36
031030,18.494, 09 Nov 2015, 03:11:06
031100,18.4952, 09 Nov 2015, 03:11:36
031130,18.4971, 09 Nov 2015, 03:12:05
031200,18.4991, 09 Nov 2015, 03:12:36
031230,18.5005, 09 Nov 2015, 03:13:06
031300,18.5015, 09 Nov 2015, 03:13:36
031330,18.5023, 09 Nov 2015, 03:14:06
031400,18.5035, 09 Nov 2015, 03:14:35
031430,18.5039, 09 Nov 2015, 03:15:06
031500,18.5036, 09 Nov 2015, 03:15:36
031530,18.5043, 09 Nov 2015, 03:16:06
031600,18.505, 09 Nov 2015, 03:16:35
031630,18.5056, 09 Nov 2015, 03:17:06
031700,18.5055, 09 Nov 2015, 03:17:36
031730,18.5053, 09 Nov 2015, 03:18:06
031800,18.5046, 09 Nov 2015, 03:18:35
031830,18.5029, 09 Nov 2015, 03:19:05
031900,18.5009, 09 Nov 2015, 03:19:36
031930,18.4984, 09 Nov 2015, 03:20:06
032000,18.4951, 09 Nov 2015, 03:20:36
032030,18.4922, 09 Nov 2015, 03:21:05
032100,18.4875, 09 Nov 2015, 03:21:36
032130,18.4835, 09 Nov 2015, 03:22:06
032200,18.4796, 09 Nov 2015, 03:22:36
032230,18.4769, 09 Nov 2015, 03:23:05
032300,18.4748, 09 Nov 2015, 03:23:35
032330,18.4745, 09 Nov 2015, 03:24:06
032400,18.4753, 09 Nov 2015, 03:24:36
032430,18.4763, 09 Nov 2015, 03:25:06
032500,18.4755, 09 Nov 2015, 03:25:35
032530,18.4742, 09 Nov 2015, 03:26:06
032600,18.4729, 09 Nov 2015, 03:26:36
032630,18.4714, 09 Nov 2015, 03:27:06
032700,18.4702, 09 Nov 2015, 03:27:36
032730,18.4691, 09 Nov 2015, 03:28:06
032800,18.4686, 09 Nov 2015, 03:28:37
032830,18.4685, 09 Nov 2015, 03:29:06
032900,18.4687, 09 Nov 2015, 03:29:36
032930,18.4684, 09 Nov 2015, 03:30:06
033000,18.4694, 09 Nov 2015, 03:30:37
033030,18.4705, 09 Nov 2015, 03:31:07
033100,18.4721, 09 Nov 2015, 03:31:36
033130,18.4734, 09 Nov 2015, 03:32:06
033200,18.4749, 09 Nov 2015, 03:32:36
033230,18.4772, 09 Nov 2015, 03:33:07
033300,18.4798, 09 Nov 2015, 03:33:36
033330,18.4814, 09 Nov 2015, 03:34:06
033400,18.4802, 09 Nov 2015, 03:34:36
033430,18.4742, 09 Nov 2015, 03:35:07
033500,18.4648, 09 Nov 2015, 03:35:37
033530,18.456, 09 Nov 2015, 03:36:06
033600,18.449, 09 Nov 2015, 03:36:36
033630,18.4433, 09 Nov 2015, 03:37:06
033700,18.4395, 09 Nov 2015, 03:37:36
033730,18.4358, 09 Nov 2015, 03:38:06
033800,18.4329, 09 Nov 2015, 03:38:36
033830,18.4309, 09 Nov 2015, 03:39:06
033900,18.4309, 09 Nov 2015, 03:39:37
033930,18.4307, 09 Nov 2015, 03:40:06
034000,18.4301, 09 Nov 2015, 03:40:36
034030,18.4286, 09 Nov 2015, 03:41:06
034100,18.426, 09 Nov 2015, 03:41:37
034130,18.4232, 09 Nov 2015, 03:42:06
034200,18.42, 09 Nov 2015, 03:42:36
034230,18.4172, 09 Nov 2015, 03:43:06
034300,18.4146, 09 Nov 2015, 03:43:36
034330,18.4136, 09 Nov 2015, 03:44:07
034400,18.414, 09 Nov 2015, 03:44:36
034430,18.4153, 09 Nov 2015, 03:45:06
034500,18.4179, 09 Nov 2015, 03:45:36
040000,18.4953, 09 Nov 2015, 04:00:36
040030,18.5005, 09 Nov 2015, 04:01:05
040100,18.5055, 09 Nov 2015, 04:01:35
040130,18.5117, 09 Nov 2015, 04:02:06
040200,18.5166, 09 Nov 2015, 04:02:36
040230,18.5202, 09 Nov 2015, 04:03:06
040300,18.5233, 09 Nov 2015, 04:03:35
040330,18.526, 09 Nov 2015, 04:04:06
040400,18.5283, 09 Nov 2015, 04:04:36
040430,18.5284, 09 Nov 2015, 04:05:06
040500,18.5255, 09 Nov 2015, 04:05:36
040530,18.5202, 09 Nov 2015, 04:06:05
040600,18.513, 09 Nov 2015, 04:06:36
040630,18.5045, 09 Nov 2015, 04:07:07
040700,18.4951, 09 Nov 2015, 04:07:36
040730,18.4861, 09 Nov 2015, 04:08:06
040800,18.4777, 09 Nov 2015, 04:08:36
040830,18.4717, 09 Nov 2015, 04:09:07
040900,18.4672, 09 Nov 2015, 04:09:37
040930,18.4659, 09 Nov 2015, 04:10:06
041000,18.4666, 09 Nov 2015, 04:10:36
041030,18.4694, 09 Nov 2015, 04:11:07
041100,18.4736, 09 Nov 2015, 04:11:37
041130,18.4781, 09 Nov 2015, 04:12:06
041200,18.4843, 09 Nov 2015, 04:12:36
041230,18.4902, 09 Nov 2015, 04:13:06
041300,18.4974, 09 Nov 2015, 04:13:37
041330,18.5042, 09 Nov 2015, 04:14:07
041400,18.51, 09 Nov 2015, 04:14:36
041430,18.5148, 09 Nov 2015, 04:15:06
041500,18.5181, 09 Nov 2015, 04:15:36
041530,18.5218, 09 Nov 2015, 04:16:07
041600,18.5247, 09 Nov 2015, 04:16:37
041630,18.5273, 09 Nov 2015, 04:17:06
041700,18.5262, 09 Nov 2015, 04:17:36
041730,18.5248, 09 Nov 2015, 04:18:07
041800,18.5233, 09 Nov 2015, 04:18:36
041830,18.5216, 09 Nov 2015, 04:19:06
041900,18.5198, 09 Nov 2015, 04:19:36
041930,18.5157, 09 Nov 2015, 04:20:06
042000,18.5129, 09 Nov 2015, 04:20:36
042030,18.5101, 09 Nov 2015, 04:21:06
042100,18.5067, 09 Nov 2015, 04:21:36
042130,18.5047, 09 Nov 2015, 04:22:06
042200,18.5032, 09 Nov 2015, 04:22:37
042230,18.5029, 09 Nov 2015, 04:23:06
042300,18.5035, 09 Nov 2015, 04:23:36
042330,18.5055, 09 Nov 2015, 04:24:06
042400,18.5087, 09 Nov 2015, 04:24:36
042430,18.512, 09 Nov 2015, 04:25:06
042500,18.5159, 09 Nov 2015, 04:25:36
042530,18.5188, 09 Nov 2015, 04:26:06
042600,18.5217, 09 Nov 2015, 04:26:36
042630,18.5236, 09 Nov 2015, 04:27:06
042700,18.5256, 09 Nov 2015, 04:27:36
042730,18.5266, 09 Nov 2015, 04:28:06
042800,18.5258, 09 Nov 2015, 04:28:36
042830,18.5243, 09 Nov 2015, 04:29:05
042900,18.5219, 09 Nov 2015, 04:29:36
042930,18.518, 09 Nov 2015, 04:30:06
043000,18.5131, 09 Nov 2015, 04:30:36
043030,18.5095, 09 Nov 2015, 04:31:06
043100,18.5068, 09 Nov 2015, 04:31:36
043130,18.5039, 09 Nov 2015, 04:32:06
043200,18.5014, 09 Nov 2015, 04:32:36
043230,18.498, 09 Nov 2015, 04:33:06
043300,18.4947, 09 Nov 2015, 04:33:35
043330,18.4908, 09 Nov 2015, 04:34:06
043400,18.488, 09 Nov 2015, 04:34:36
043430,18.4871, 09 Nov 2015, 04:35:06
043500,18.4866, 09 Nov 2015, 04:35:36
043530,18.4871, 09 Nov 2015, 04:36:06
043600,18.4872, 09 Nov 2015, 04:36:36
043630,18.4879, 09 Nov 2015, 04:37:06
043700,18.4887, 09 Nov 2015, 04:37:35
043730,18.4907, 09 Nov 2015, 04:38:06
043800,18.4927, 09 Nov 2015, 04:38:36
043830,18.494, 09 Nov 2015, 04:39:06
043900,18.4959, 09 Nov 2015, 04:39:36
043930,18.4974, 09 Nov 2015, 04:40:05
044000,18.4986, 09 Nov 2015, 04:40:36
044030,18.4973, 09 Nov 2015, 04:41:06
044100,18.4956, 09 Nov 2015, 04:41:36
044130,18.4932, 09 Nov 2015, 04:42:05
044200,18.4896, 09 Nov 2015, 04:42:36
044230,18.4853, 09 Nov 2015, 04:43:06
044300,18.4798, 09 Nov 2015, 04:43:36
044330,18.4746, 09 Nov 2015, 04:44:05
044400,18.4712, 09 Nov 2015, 04:44:35
044430,18.4692, 09 Nov 2015, 04:45:06
044500,18.4689, 09 Nov 2015, 04:45:36
044530,18.4688, 09 Nov 2015, 04:46:06
044600,18.4696, 09 Nov 2015, 04:46:35
044630,18.4703, 09 Nov 2015, 04:47:07
044700,18.4713, 09 Nov 2015, 04:47:37
044730,18.4715, 09 Nov 2015, 04:48:06
044800,18.4726, 09 Nov 2015, 04:48:36
044830,18.4743, 09 Nov 2015, 04:49:07
044900,18.476, 09 Nov 2015, 04:49:37
044930,18.4763, 09 Nov 2015, 04:50:06
045000,18.4771, 09 Nov 2015, 04:50:36
045030,18.4782, 09 Nov 2015, 04:51:06
045100,18.4795, 09 Nov 2015, 04:51:37
045130,18.4808, 09 Nov 2015, 04:52:07
045200,18.4824, 09 Nov 2015, 04:52:36
045230,18.4835, 09 Nov 2015, 04:53:06
045300,18.4842, 09 Nov 2015, 04:53:37
045330,18.4839, 09 Nov 2015, 04:54:07
045400,18.4841, 09 Nov 2015, 04:54:36
045430,18.4848, 09 Nov 2015, 04:55:06
045500,18.4861, 09 Nov 2015, 04:55:37
045530,18.4882, 09 Nov 2015, 04:56:07
045600,18.4903, 09 Nov 2015, 04:56:37
045630,18.493, 09 Nov 2015, 04:57:06
045700,18.4958, 09 Nov 2015, 04:57:36
045730,18.4984, 09 Nov 2015, 04:58:07
045800,18.5017, 09 Nov 2015, 04:58:36
045830,18.504, 09 Nov 2015, 04:59:06
045900,18.5067, 09 Nov 2015, 04:59:36
045930,18.5095, 09 Nov 2015, 05:00:07
050000,18.5129, 09 Nov 2015, 05:00:36
050030,18.5155, 09 Nov 2015, 05:01:06
050100,18.5175, 09 Nov 2015, 05:01:36
050130,18.5201, 09 Nov 2015, 05:02:06
050200,18.5214, 09 Nov 2015, 05:02:37
050230,18.5224, 09 Nov 2015, 05:03:06
050300,18.5231, 09 Nov 2015, 05:03:36
050330,18.5234, 09 Nov 2015, 05:04:06
050400,18.5238, 09 Nov 2015, 05:04:36
050430,18.5244, 09 Nov 2015, 05:05:07
050500,18.525, 09 Nov 2015, 05:05:36
050530,18.5264, 09 Nov 2015, 05:06:06
050600,18.528, 09 Nov 2015, 05:06:36
050630,18.5287, 09 Nov 2015, 05:07:07
050700,18.5297, 09 Nov 2015, 05:07:36
050730,18.5312, 09 Nov 2015, 05:08:06
050800,18.5333, 09 Nov 2015, 05:08:36
050830,18.5354, 09 Nov 2015, 05:09:06
050900,18.5365, 09 Nov 2015, 05:09:36
050930,18.538, 09 Nov 2015, 05:10:06
051000,18.5389, 09 Nov 2015, 05:10:36
051030,18.5405, 09 Nov 2015, 05:11:06
051100,18.5418, 09 Nov 2015, 05:11:36
051130,18.5434, 09 Nov 2015, 05:12:06
051200,18.544, 09 Nov 2015, 05:12:36
051230,18.5441, 09 Nov 2015, 05:13:06
051300,18.5442, 09 Nov 2015, 05:13:36
051330,18.5441, 09 Nov 2015, 05:14:06
051400,18.5446, 09 Nov 2015, 05:14:36
051430,18.545, 09 Nov 2015, 05:15:06
051500,18.5448, 09 Nov 2015, 05:15:36
051530,18.5439, 09 Nov 2015, 05:16:06
051600,18.5429, 09 Nov 2015, 05:16:36
051630,18.5416, 09 Nov 2015, 05:17:06
051700,18.5389, 09 Nov 2015, 05:17:36
051730,18.5362, 09 Nov 2015, 05:18:05
051800,18.5327, 09 Nov 2015, 05:18:36
051830,18.5299, 09 Nov 2015, 05:19:06
051900,18.5284, 09 Nov 2015, 05:19:36
051930,18.5272, 09 Nov 2015, 05:20:06
052000,18.5259, 09 Nov 2015, 05:20:35
052030,18.5253, 09 Nov 2015, 05:21:06
052100,18.5226, 09 Nov 2015, 05:21:36
052130,18.5205, 09 Nov 2015, 05:22:06
052200,18.5195, 09 Nov 2015, 05:22:35
052230,18.5203, 09 Nov 2015, 05:23:06